Location: ??
(35.5653°N, 139.6194°E)
Time: 07:49:16
(UTC+00:00)

Cosmos 2100 Rocket - Pass Details

Date: 20 November 2019
Orbit: 955 x 1001 km, 82.9° (Epoch: 09 December)

Event Time Altitude Azimuth Distance (km) Brightness Sun altitude
Rises 19:52:51 0° 208° (SSW) 3,649 6.8 -18.1°
Reaches altitude 10° 19:55:34 10° 217° (SW) 2,699 6.1 -17.6°
Maximum altitude 20:01:11 36° 282° (WNW) 1,477 4.4 -16.5°
Drops below altitude 10° 20:06:48 10° 348° (NNW) 2,694 6.1 -15.3°
Sets 20:09:31 0° 357° (N) 3,641 6.8 -14.8°
